Regional Weather Roundup
Issued by NWS

Home | Current Version | Previous Version | Graphics & Text | Print | Product List | Glossary Off
Versions: 1 2 3 4 5 6 7 8 9 10 11 12 13 14 15 16 17 18 19 20 21 22 23 24 25 26 27 28 29 30 31 32 33 34 35 36 37 38 39 40 41 42 43 44 45 46 47 48 49 50

492
ASUS43 KMKX 280100
RWRWI

WISCONSIN REGIONAL WEATHER ROUNDUP
NATIONAL WEATHER SERVICE MILWAUKEE/SULLIVAN WI
800 PM CDT THU APR 27 2017

NOTE: "FAIR" INDICATES FEW OR NO CLOUDS BELOW 12,000 FEET WITH NO
SIGNIFICANT WEATHER AND/OR OBSTRUCTIONS TO VISIBILITY.

WIZ001-002-006>008-014>016-023>028-280200-
NORTHWEST WISCONSIN

CITY           SKY/WX    TMP DP  RH WIND       PRES   REMARKS
SUPERIOR ARPT  CLOUDY    32  22  67 W9        29.63R WCI  24
ASHLAND        CLOUDY    29  24  82 SW12      29.62R WCI  19
HAYWARD        CLOUDY    30  21  69 W9        29.63R WCI  22
SIREN          CLOUDY    31  24  78 W8        29.66R WCI  23
CUMBERLAND     CLOUDY    30  23  74 W14       29.65R WCI  20
RICE LAKE      CLOUDY    31  25  77 W8G17     29.66R WCI  24
CHETEK         NOT AVBL
LADYSMITH      CLOUDY    32  26  78 W15       29.65R WCI  21
EAU CLAIRE     NOT AVBL
MENOMONIE      CLOUDY    34  26  74 W10       29.67R WCI  26
NEW RICHMOND   CLOUDY    32  23  69 W12       29.69R WCI  23
OSCEOLA        CLOUDY    32  25  75 W10       29.72R WCI  24
$$

WIZ003>005-009-010-017-018-280200-
NORTH CENTRAL WISCONSIN

CITY           SKY/WX    TMP DP  RH WIND       PRES   REMARKS
MANITOWISH WTR NOT AVBL
ARBOR VITAE    CLOUDY    32  28  86 W8        29.57R WCI  25
WOODRUFF       CLOUDY    32  28  86 W8        29.57R WCI  25
RHINELANDER    CLOUDY    30  26  85 W16       29.59R WCI  19
EAGLE RIVER    CLOUDY    28  24  83 W10       29.56R WCI  19
LAND O LAKES   FLURRIES  29  25  86 W7        29.56R WCI  22
PHILLIPS       CLOUDY    28  26  92 W5        29.59R WCI  22
TOMAHAWK       CLOUDY    29  25  84 W8        29.61R WCI  21
MEDFORD        CLOUDY    30  26  84 W7        29.62R WCI  23
MERRILL        CLOUDY    31  28  89 W9        29.62R WCI  23
$$

WIZ029-030-035-036-043>047-280200-
CENTRAL WISCONSIN

CITY           SKY/WX    TMP DP  RH WIND       PRES   REMARKS
WAUSAU         CLOUDY    32  28  85 W13       29.63R WCI  22
MOSINEE        CLOUDY    32  30  93 W12       29.65R WCI  23
MARSHFIELD     CLOUDY    33  28  81 W9        29.64R WCI  25
STEVENS POINT  CLOUDY    33  29  85 W9        29.65R WCI  26
WAUPACA        CLOUDY    40  35  80 W8        29.65R WCI  35
WAUTOMA        LGT RAIN  38  36  92 W9        29.68R WCI  31
WISC RAPIDS    LGT RAIN  35  33  92 NW8       29.67R WCI  29
CAMP DOUGLAS   DRIZZLE   37  32  81 W12G20    29.69R WCI  30
$$

WIZ011>013-019>022-031-037>040-048>050-280200-
NORTHEAST WISCONSIN

CITY           SKY/WX    TMP DP  RH WIND       PRES   REMARKS
ANTIGO         CLOUDY    31  29  93 W13G20    29.60R WCI  21
SHAWANO        CLOUDY    38  32  77 W12G21    29.63R WCI  31
OCONTO         CLOUDY    38  32  79 SW8       29.62R WCI  32
STURGEON BAY   CLOUDY    39  34  82 SW9       29.64R WCI  33
GREEN BAY      CLOUDY    41  35  79 W14       29.65R
MANITOWOC      CLOUDY    43  36  75 SW9       29.67R
APPLETON       CLOUDY    39  32  75 W8        29.64R WCI  34
CLINTONVILLE   CLOUDY    37  32  81 W10       29.63R WCI  30
OSHKOSH        LGT RAIN  40  36  86 W5G17     29.66R
$$

WIZ032>034-041-042-053>061-280200-
SOUTHWEST WISCONSIN

CITY           SKY/WX    TMP DP  RH WIND       PRES   REMARKS
LA CROSSE      CLOUDY    39  30  70 W15       29.71R WCI  31
SPARTA         CLOUDY    37  32  81 W8        29.69R WCI  31
VIROQUA        CLOUDY    37  32  84 W17       29.69R WCI  27
BOSCOBEL       CLOUDY    41  30  65 SW10      29.74R
PRAIRIE DU CHI CLOUDY    39  28  64 W8        29.74R WCI  34
PLATTEVILLE    CLOUDY    39  33  78 W13       29.73R WCI  32
$$

WIZ056-057-062-063-064-067-068-280200-
SOUTH CENTRAL WISCONSIN

CITY           SKY/WX    TMP DP  RH WIND       PRES   REMARKS
REEDSBURG      NOT AVBL
BARABOO/DELLS  CLOUDY    38  33  82 W10       29.69R WCI  31
LONE ROCK      NOT AVBL
MINERAL POINT  CLOUDY    39  32  75 W14       29.71R WCI  31
MADISON        CLOUDY    41  31  67 W12G18    29.71R
MIDDLETON      CLOUDY    41  33  73 W15       29.70R
WATERTOWN      CLOUDY    39  37  93 SW12G17   29.70R WCI  32
MONROE         CLOUDY    39  32  75 W20       29.73R WCI  30
JANESVILLE     CLOUDY    43  34  70 W15       29.73R
$$

WIZ051-052-058>065-066-070>072-280200-
SOUTHEAST WISCONSIN

CITY           SKY/WX    TMP DP  RH WIND       PRES   REMARKS
MILWAUKEE      CLOUDY    44  36  73 SW16      29.71R
WAUKESHA       CLOUDY    39  32  75 SW15G23   29.71R WCI  31
MILWAUKEE/TIMM CLOUDY    43  34  70 SW13      29.71R
RACINE         CLOUDY    44  34  67 W14G20    29.74R
KENOSHA        CLOUDY    43  34  70 W17G23    29.73R
FOND DU LAC    LGT RAIN  41  36  82 W7        29.67R
SHEBOYGAN      LGT RAIN  41  38  89 W6        29.67R
WEST BEND      CLOUDY    41  36  81 SW10      29.67R
JUNEAU         CLOUDY    40  33  75 SW14G20   29.70R WCI  33
$$

LSZ147-162-280200-
LAKE SUPERIOR

STATION/POSITION TIME  TEMP    WIND        PRES    WAVE
                       AIR SEA DIR/SP/G            HT/PER
                 (UTC) (F)     (DEG/KT/KT) (MB)    (FT/S)
DEVILS ISLAND    0000   31     280/ 15/ 17 1002.1R
PORT WING        0030   32     290/ 14/ 20 1002.7R
SAXON HARBOR     0030   30     210/  5/  8 1002.7R
$$

LMZ867-665-643>646-280200-
LAKE MICHIGAN

STATION/POSITION TIME  TEMP    WIND        PRES    WAVE
                       AIR SEA DIR/SP/G            HT/PER
                 (UTC) (F)     (DEG/KT/KT) (MB)    (FT/S)
CHAMBERS ISLAND  0040   38     210/  6/ 11 1002.7R
N MID LAKE BUOY  2350   36 37  240/ 14/ 17 1003.0R   4/ 6
NORTHPORT PIER   0040   37      CALM  /  7 1003.4R
KEWAUNEE LAKESHO 0030   42     260/ 11/ 14 1003.5R
SHEBOYGAN LAKESH 0000   42     210/  6/  8 1004.2R
PORT WASHINGTON  0040   45     250/  9/ 17 1006.1R
MILWAUKEE LAKESH 0030   44     230/ 13/ 17   N/A
S MID LAKE BUOY  2350   43 41  250/ 14/ 17 1006.5R   3/ 5
KENOSHA   LAKESH 0000   44     230/ 13/ 18 1006.4
$$

TC  - TEMPERATURE IN CELSIUS
VSB - VISIBILITY IN STATUTE MILES
WCI - WIND CHILL INDEX
HX  - HEAT INDEX





USA.gov is the U.S. government's official web portal to all federal, state and local government web resources and services.